• In Hungary
  • List of Countries
  • For 7 days
  • Water Temperature
  • Satellite Maps
  • Weather Map
  • News
  • Weather Widgets
  • user-avatar
    Login

    Hourly Weather Malye Ledinki

    Today, 16 July, Monday

    Time Temperature Precipitation Wind Pressure Humidity
    00:00 +19°C° 0.1 mm 1 mps 741 mmHg 95%
    01:00 +18°C° 0.1 mm 2 mps 741 mmHg 96%
    02:00 +18°C° 0 mm 2 mps 742 mmHg 97%
    03:00 +18°C° 0 mm 2 mps 742 mmHg 96%
    04:00 +18°C° 0 mm 2 mps 742 mmHg 96%
    05:00 +18°C° 0 mm 2 mps 741 mmHg 96%
    06:00 +20°C° 0 mm 3 mps 742 mmHg 91%
    07:00 +22°C° 0 mm 3 mps 742 mmHg 87%
    08:00 +24°C° 0 mm 3 mps 742 mmHg 80%
    09:00 +25°C° 0.8 mm 3 mps 742 mmHg 78%
    10:00 +26°C° 0.8 mm 3 mps 742 mmHg 75%
    11:00 +27°C° 0.8 mm 4 mps 741 mmHg 73%
    12:00 +27°C° 0.5 mm 4 mps 741 mmHg 71%
    13:00 +27°C° 0.5 mm 4 mps 741 mmHg 71%
    14:00 +28°C° 0 mm 3 mps 741 mmHg 72%
    15:00 +27°C° 0.2 mm 3 mps 741 mmHg 72%
    16:00 +27°C° 0.2 mm 3 mps 741 mmHg 72%
    17:00 +27°C° 0.2 mm 3 mps 741 mmHg 72%
    18:00 +26°C° 0.3 mm 3 mps 741 mmHg 78%
    19:00 +24°C° 0.3 mm 3 mps 741 mmHg 84%
    20:00 +21°C° 0.3 mm 3 mps 741 mmHg 90%
    21:00 +21°C° 0.1 mm 3 mps 741 mmHg 92%
    22:00 +20°C° 0.1 mm 3 mps 741 mmHg 93%
    23:00 +20°C° 0.1 mm 3 mps 741 mmHg 95%

    Tomorrow, 17 July, Tuesday

    Time Temperature Precipitation Wind Pressure Humidity
    00:00 +19°C° 0 mm 3 mps 741 mmHg 96%
    01:00 +19°C° 0 mm 3 mps 741 mmHg 96%
    02:00 +19°C° 0 mm 3 mps 741 mmHg 97%
    03:00 +19°C° 0 mm 3 mps 741 mmHg 97%
    04:00 +19°C° 0 mm 3 mps 741 mmHg 96%
    05:00 +19°C° 0 mm 3 mps 741 mmHg 96%
    06:00 +20°C° 0 mm 4 mps 740 mmHg 91%
    07:00 +22°C° 0 mm 4 mps 740 mmHg 86%
    08:00 +23°C° 0 mm 5 mps 740 mmHg 81%
    09:00 +25°C° 0 mm 5 mps 740 mmHg 75%
    10:00 +27°C° 0 mm 5 mps 740 mmHg 69%
    11:00 +28°C° 0 mm 6 mps 740 mmHg 63%
    12:00 +28°C° 0 mm 6 mps 739 mmHg 63%
    13:00 +28°C° 0 mm 6 mps 739 mmHg 62%
    14:00 +29°C° 0 mm 6 mps 739 mmHg 61%
    15:00 +28°C° 0.1 mm 6 mps 739 mmHg 63%
    16:00 +28°C° 0.1 mm 6 mps 739 mmHg 65%
    17:00 +27°C° 0.1 mm 5 mps 739 mmHg 67%
    18:00 +26°C° 0 mm 5 mps 739 mmHg 71%
    19:00 +23°C° 0 mm 4 mps 739 mmHg 76%
    20:00 +22°C° 0 mm 4 mps 739 mmHg 80%
    21:00 +22°C° 0 mm 4 mps 738 mmHg 80%
    22:00 +21°C° 0 mm 4 mps 738 mmHg 80%
    23:00 +21°C° 0 mm 4 mps 738 mmHg 80%

    Day after tomorrow, 18 July, Wednesday

    Time Temperature Precipitation Wind Pressure Humidity
    00:00 +20°C° 0 mm 4 mps 738 mmHg 81%
    01:00 +20°C° 0 mm 4 mps 738 mmHg 83%
    02:00 +19°C° 0 mm 4 mps 738 mmHg 85%
    03:00 +19°C° 0.2 mm 4 mps 738 mmHg 87%
    04:00 +19°C° 0.2 mm 4 mps 738 mmHg 89%
    05:00 +19°C° 0.2 mm 4 mps 738 mmHg 92%
    06:00 +20°C° 0.1 mm 4 mps 738 mmHg 91%
    07:00 +20°C° 0.1 mm 4 mps 738 mmHg 91%
    08:00 +20°C° 0.1 mm 5 mps 738 mmHg 91%
    09:00 +21°C° 0 mm 5 mps 738 mmHg 88%
    10:00 +21°C° 0 mm 5 mps 738 mmHg 85%
    11:00 +22°C° 0 mm 5 mps 738 mmHg 82%
    12:00 +23°C° 0.3 mm 5 mps 738 mmHg 80%
    13:00 +23°C° 0.3 mm 5 mps 738 mmHg 78%
    14:00 +25°C° 0.3 mm 5 mps 738 mmHg 76%
    15:00 +25°C° 0.3 mm 5 mps 737 mmHg 77%
    16:00 +25°C° 0.3 mm 5 mps 737 mmHg 77%
    17:00 +25°C° 0.3 mm 5 mps 737 mmHg 78%
    18:00 +22°C° 0.2 mm 4 mps 737 mmHg 82%
    19:00 +21°C° 0.2 mm 4 mps 737 mmHg 86%
    20:00 +20°C° 0.2 mm 3 mps 737 mmHg 90%
    21:00 +20°C° 0 mm 3 mps 737 mmHg 92%
    22:00 +19°C° 0 mm 3 mps 737 mmHg 93%
    23:00 +19°C° 0 mm 3 mps 737 mmHg 94%

    19 July, Thursday

    Time Temperature Precipitation Wind Pressure Humidity
    00:00 +19°C° 0.1 mm 3 mps 737 mmHg 95%
    01:00 +19°C° 0.1 mm 3 mps 737 mmHg 96%
    02:00 +18°C° 0.1 mm 3 mps 737 mmHg 96%
    03:00 +19°C° 0.1 mm 3 mps 737 mmHg 97%
    04:00 +19°C° 0.1 mm 4 mps 737 mmHg 97%
    05:00 +19°C° 0.1 mm 4 mps 737 mmHg 97%
    06:00 +19°C° 0.3 mm 4 mps 737 mmHg 96%
    07:00 +19°C° 0.3 mm 4 mps 737 mmHg 96%
    08:00 +19°C° 0.3 mm 5 mps 737 mmHg 95%
    09:00 +19°C° 0.4 mm 5 mps 737 mmHg 95%
    10:00 +20°C° 0.4 mm 5 mps 736 mmHg 94%
    11:00 +20°C° 0.4 mm 5 mps 736 mmHg 94%
    12:00 +20°C° 0.6 mm 5 mps 736 mmHg 94%
    13:00 +20°C° 0.6 mm 5 mps 736 mmHg 94%
    14:00 +20°C° 0.6 mm 5 mps 736 mmHg 93%
    15:00 +20°C° 0.7 mm 5 mps 736 mmHg 94%
    16:00 +20°C° 0.7 mm 4 mps 736 mmHg 94%
    17:00 +20°C° 0.7 mm 4 mps 736 mmHg 95%
    18:00 +20°C° 0.5 mm 4 mps 736 mmHg 95%
    19:00 +20°C° 0.5 mm 4 mps 736 mmHg 96%
    20:00 +20°C° 0.5 mm 4 mps 736 mmHg 96%
    21:00 +20°C° 0.7 mm 4 mps 736 mmHg 97%
    22:00 +19°C° 0.7 mm 4 mps 736 mmHg 97%
    23:00 +19°C° 0.7 mm 4 mps 736 mmHg 98%

    20 July, Friday

    Time Temperature Precipitation Wind Pressure Humidity
    00:00 +19°C° 0.1 mm 3 mps 736 mmHg 98%
    01:00 +19°C° 0.1 mm 3 mps 736 mmHg 98%
    02:00 +19°C° 0.1 mm 3 mps 736 mmHg 98%
    03:00 +19°C° 0.1 mm 3 mps 736 mmHg 98%
    04:00 +19°C° 0.1 mm 3 mps 736 mmHg 98%
    05:00 +19°C° 0.1 mm 3 mps 736 mmHg 98%
    06:00 +19°C° 0 mm 3 mps 736 mmHg 97%
    07:00 +20°C° 0 mm 3 mps 736 mmHg 97%
    08:00 +20°C° 0 mm 3 mps 736 mmHg 96%
    09:00 +21°C° 0.1 mm 3 mps 736 mmHg 95%
    10:00 +21°C° 0.1 mm 3 mps 736 mmHg 94%
    11:00 +21°C° 0.1 mm 3 mps 736 mmHg 93%
    12:00 +22°C° 0.2 mm 3 mps 736 mmHg 89%
    13:00 +24°C° 0.2 mm 3 mps 736 mmHg 86%
    14:00 +25°C° 0.2 mm 3 mps 736 mmHg 83%
    15:00 +25°C° 0.3 mm 3 mps 736 mmHg 83%
    16:00 +25°C° 0.3 mm 3 mps 736 mmHg 82%
    17:00 +25°C° 0.3 mm 3 mps 736 mmHg 82%
    18:00 +24°C° 0.2 mm 3 mps 736 mmHg 86%
    19:00 +23°C° 0.2 mm 2 mps 736 mmHg 91%
    20:00 +21°C° 0.2 mm 2 mps 735 mmHg 96%
    21:00 +21°C° 1.3 mm 2 mps 735 mmHg 96%
    22:00 +20°C° 1.3 mm 2 mps 735 mmHg 97%
    23:00 +20°C° 1.3 mm 2 mps 735 mmHg 98%

    21 July, Saturday

    Time Temperature Precipitation Wind Pressure Humidity
    00:00 +19°C° 0.2 mm 2 mps 735 mmHg 98%
    01:00 +19°C° 0.2 mm 2 mps 735 mmHg 98%
    02:00 +19°C° 0.2 mm 2 mps 735 mmHg 98%
    03:00 +19°C° 0.2 mm 2 mps 735 mmHg 98%
    04:00 +19°C° 0.2 mm 2 mps 735 mmHg 98%
    05:00 +20°C° 0.2 mm 1 mps 735 mmHg 98%
    06:00 +20°C° 0.1 mm 2 mps 735 mmHg 96%
    07:00 +21°C° 0.1 mm 2 mps 735 mmHg 94%
    08:00 +23°C° 0.1 mm 2 mps 736 mmHg 92%
    09:00 +24°C° 0.7 mm 2 mps 736 mmHg 89%
    10:00 +25°C° 0.7 mm 2 mps 736 mmHg 87%
    11:00 +25°C° 0.7 mm 2 mps 736 mmHg 84%
    12:00 +26°C° 1.7 mm 2 mps 736 mmHg 83%
    13:00 +26°C° 1.7 mm 2 mps 735 mmHg 81%
    14:00 +27°C° 1.7 mm 2 mps 735 mmHg 79%
    15:00 +27°C° 1.2 mm 2 mps 735 mmHg 81%
    16:00 +26°C° 1.2 mm 1 mps 735 mmHg 84%
    17:00 +26°C° 1.2 mm 1 mps 735 mmHg 86%
    18:00 +25°C° 0.3 mm 1 mps 735 mmHg 89%
    19:00 +24°C° 0.3 mm 1 mps 735 mmHg 92%
    20:00 +23°C° 0.3 mm 1 mps 735 mmHg 95%
    21:00 +22°C° 0.1 mm 1 mps 735 mmHg 96%
    22:00 +21°C° 0.1 mm 1 mps 736 mmHg 96%
    23:00 +21°C° 0.1 mm 1 mps 736 mmHg 97%
    Show more